Location: ?????
(42.2640°N, 43.4211°E)
Time: 01:51:51
(UTC+00:00)

SL-16 R/B - Pass Details

Date: 07 August 2020
Orbit: 840 x 849 km, 71.0° (Epoch: 23 September)

Event Time Altitude Azimuth Distance (km) Brightness Sun altitude
Rises 00:19:48 0° 328° (NNW) 3,421 5.5 -17.2°
Reaches altitude 10° 00:22:23 10° 321° (NW) 2,480 4.7 -16.9°
Maximum altitude 00:27:37 39° 254° (WSW) 1,248 2.6 -16.1°
Enters shadow 00:31:29 17° 194° (SSW) 2,013 3.7 -15.6°
